TimeEDT,TemperatureF,Dew PointF,Humidity,Sea Level PressureIn,VisibilityMPH,Wind Direction,Wind SpeedMPH,Gust SpeedMPH,PrecipitationIn,Events,Conditions,WindDirDegrees,DateUTC
1:53 AM,44.1,30.9,60,30.22,10.0,SSW,15.0,24.2,N/A,,Clear,200,2012-10-14 05:53:00
2:53 AM,45.0,34.0,65,30.21,10.0,SSW,12.7,23.0,N/A,,Overcast,210,2012-10-14 06:53:00
3:53 AM,45.0,35.1,68,30.19,10.0,SW,9.2,20.7,N/A,,Overcast,220,2012-10-14 07:53:00
4:53 AM,46.0,37.0,71,30.19,10.0,WSW,9.2,18.4,N/A,,Overcast,240,2012-10-14 08:53:00
5:53 AM,46.0,39.0,76,30.18,10.0,WSW,10.4,-,0.00,,Overcast,240,2012-10-14 09:53:00
6:53 AM,46.9,41.0,80,30.17,10.0,SW,11.5,20.7,N/A,,Overcast,230,2012-10-14 10:53:00
7:53 AM,46.9,42.1,83,30.18,10.0,WSW,9.2,18.4,N/A,,Overcast,250,2012-10-14 11:53:00
8:53 AM,48.9,43.0,80,30.18,10.0,WSW,9.2,-,N/A,,Overcast,240,2012-10-14 12:53:00
9:53 AM,50.0,43.0,77,30.18,10.0,WSW,10.4,17.3,N/A,,Clear,240,2012-10-14 13:53:00
10:53 AM,52.0,44.1,74,30.17,10.0,SW,10.4,-,N/A,,Overcast,230,2012-10-14 14:53:00
11:53 AM,57.0,46.0,67,30.15,10.0,South,10.4,-,N/A,,Scattered Clouds,190,2012-10-14 15:53:00
12:53 PM,59.0,46.0,62,30.12,10.0,SW,11.5,18.4,N/A,,Mostly Cloudy,220,2012-10-14 16:53:00
1:53 PM,57.9,46.0,65,30.10,10.0,SW,9.2,-,N/A,,Mostly Cloudy,230,2012-10-14 17:53:00
2:53 PM,60.1,46.9,62,30.08,10.0,South,9.2,-,N/A,,Clear,190,2012-10-14 18:53:00
3:53 PM,61.0,46.9,60,30.06,10.0,SW,15.0,-,N/A,,Clear,220,2012-10-14 19:53:00
4:53 PM,61.0,48.0,62,30.04,10.0,SSW,13.8,-,N/A,,Clear,200,2012-10-14 20:53:00
5:53 PM,59.0,48.9,69,30.02,10.0,South,12.7,20.7,N/A,,Clear,190,2012-10-14 21:53:00
6:53 PM,57.0,48.9,74,30.01,10.0,South,6.9,-,N/A,,Clear,170,2012-10-14 22:53:00
7:53 PM,57.0,48.0,72,30.01,10.0,South,8.1,-,N/A,,Clear,170,2012-10-14 23:53:00
8:53 PM,57.0,46.9,69,30.00,10.0,South,11.5,17.3,N/A,,Clear,180,2012-10-15 00:53:00
9:53 PM,55.0,46.0,72,29.99,10.0,South,5.8,-,N/A,,Clear,180,2012-10-15 01:53:00
10:53 PM,55.0,46.9,74,29.96,10.0,South,5.8,-,N/A,,Clear,170,2012-10-15 02:53:00
11:53 PM,55.0,48.9,80,29.93,10.0,SSW,6.9,-,N/A,,Clear,200,2012-10-15 03:53:00